Flag for Myanmar Weather past 2 weeks in Yangon, Myanmar

Now
82 °F

Mostly cloudy.


Feels Like: 91 °F
Forecast: 77 / 85 °F
Wind: 12 mph from South

Location: Rangoon Airport

Current Time: Sep 18, 2014 at 4:44:45 PM

Latest Report: Sep 18, 2014 at 4:00 PM


Visibility: 4 mi

Pressure: 29.77 "Hg

Humidity: 84%

Dew point: 77 °F

Location of YangonLocation

Historic Weather in Yangon — Graph

°F

Yangon temperature yesterday

Maximum temperature yesterday: 88 °F (at 11:30 AM)
Minimum temperature yesterday: 79 °F (at 12:00 AM)
Average temperature yesterday: 82 °F

Past Weeks' High & Low Weather Summary

 TemperatureHumidityPressure
High90 °F (Sep 5, 2:00 PM)100% (Sep 3, 3:30 PM)29.89 "Hg (Sep 3, 3:30 PM)
Low75 °F (Sep 5, 6:30 AM)70% (Sep 5, 12:00 PM)29.56 "Hg (Sep 16, 3:30 PM)
Average81 °F88%29.75 "Hg
* Reported Sep 3 3:30 PM — Sep 18 3:30 PM, Yangon, Weather by CustomWeather, © 2014

Note: Actual official high and low records may vary slightly from our data, if they occured in-between our weather recording intervals... More about our weather records

Advertising

Yangon weather history for previous 24 hours

 ConditionsComfort  
Time TempWeatherWind HumidityBarometerVisibility
3:30 PM
Sep 18
84 °FMostly cloudy.12 mph84%29.74 "Hg4 mi
3:00 PM84 °FMostly cloudy.12 mph84%29.74 "Hg4 mi
2:30 PM82 °FWarm.N/A94%29.77 "HgN/A
2:00 PM84 °FMostly cloudy.12 mph84%29.77 "Hg5 mi
1:30 PM82 °FMostly cloudy.12 mph94%29.77 "Hg5 mi
1:00 PM81 °FMostly cloudy.9 mph94%29.77 "Hg4 mi
12:30 PM81 °FMostly cloudy.8 mph94%29.80 "Hg4 mi
12:00 PM79 °FMostly cloudy.9 mph100%29.80 "Hg4 mi
11:30 AM79 °FDrizzle. Mostly cloudy.8 mph100%29.80 "Hg4 mi
11:00 AM79 °FLight rain. Mostly cloudy.8 mph100%29.80 "Hg3 mi
10:30 AM79 °FLight rain. More clouds than sun.9 mph100%29.83 "Hg4 mi
10:00 AM79 °FLight rain. More clouds than sun.9 mph94%29.83 "Hg4 mi
9:30 AM81 °FDrizzle. More clouds than sun.9 mph84%29.83 "Hg4 mi
9:00 AM81 °FBroken clouds.7 mph84%29.80 "Hg4 mi
8:30 AM81 °FBroken clouds.12 mph84%29.77 "Hg4 mi
8:00 AM79 °FPartly sunny.12 mph94%29.77 "Hg4 mi
7:30 AM79 °FPartly sunny.7 mph94%29.74 "Hg4 mi
7:00 AM79 °FMostly cloudy.9 mph94%29.74 "Hg4 mi
6:30 AM79 °FMostly cloudy.5 mph94%29.74 "Hg4 mi
6:00 AM79 °FMostly cloudy.5 mph94%29.71 "Hg4 mi
5:30 AM79 °FPassing clouds.5 mph94%29.71 "Hg4 mi
5:00 AM79 °FPassing clouds.5 mph94%29.71 "Hg4 mi
11:30 PM
Sep 17
79 °FPassing clouds.5 mph94%29.71 "Hg4 mi
11:00 PM79 °FPassing clouds.5 mph94%29.71 "Hg4 mi
10:30 PM79 °FPassing clouds.5 mph94%29.71 "Hg4 mi
10:00 PM79 °FPassing clouds.5 mph94%29.71 "Hg4 mi
9:30 PM79 °FPassing clouds.5 mph94%29.71 "Hg4 mi
9:00 PM81 °FPassing clouds.5 mph94%29.71 "Hg4 mi
8:30 PM81 °FPassing clouds.6 mph94%29.68 "Hg4 mi
8:00 PM81 °FPassing clouds.6 mph94%29.68 "Hg4 mi
7:00 PM82 °FPassing clouds.8 mph84%29.62 "Hg4 mi
6:30 PM82 °FPassing clouds.8 mph84%29.62 "Hg4 mi
6:00 PM82 °FPassing clouds.8 mph84%29.62 "Hg4 mi
5:30 PM84 °FPassing clouds.8 mph84%29.59 "Hg4 mi
5:00 PM84 °FScattered clouds.7 mph84%29.59 "Hg5 mi
4:30 PM86 °FScattered clouds.9 mph75%29.59 "Hg5 mi
4:00 PM86 °FScattered clouds.9 mph75%29.56 "Hg5 mi
Weather by CustomWeather, © 2014

See weather overviewHow to use our weather pages